When you browse on this site, cookies collect data to enhance your experience and personalize the content and advertising you see.
Visit our Privacy Policy to learn more. By continuing to use the site, you agree to this use of cookies and data.
  • En España
  • Lista de países
  • Para 7 días
  • Temperatura del agua
  • El tiempo en el mapa
  • Informadores
  • user-avatar
    Iniciar sesión

    Tiempo cada hora Kumasi

    Hoy, 27 Febrero, Jueves

    Tiempo Temperatura Precipitaciones Viento Presión Humedad
    00:00 +29°C° 0 mm 2 mps 755 mmHg 88%
    01:00 +29°C° 0 mm 2 mps 754 mmHg 89%
    02:00 +28°C° 0 mm 2 mps 753 mmHg 89%
    03:00 +28°C° 0 mm 2 mps 753 mmHg 90%
    04:00 +28°C° 0 mm 2 mps 753 mmHg 90%
    05:00 +28°C° 0 mm 2 mps 753 mmHg 91%
    06:00 +28°C° 0 mm 2 mps 754 mmHg 91%
    07:00 +30°C° 0 mm 2 mps 754 mmHg 80%
    08:00 +32°C° 0 mm 2 mps 755 mmHg 69%
    09:00 +35°C° 0 mm 3 mps 756 mmHg 58%
    10:00 +36°C° 0 mm 3 mps 756 mmHg 51%
    11:00 +38°C° 0 mm 3 mps 755 mmHg 45%
    12:00 +40°C° 0 mm 3 mps 755 mmHg 38%
    13:00 +40°C° 0 mm 3 mps 754 mmHg 39%
    14:00 +40°C° 0 mm 4 mps 753 mmHg 40%
    15:00 +39°C° 0 mm 5 mps 753 mmHg 42%
    16:00 +37°C° 0.1 mm 5 mps 753 mmHg 48%
    17:00 +35°C° 0.1 mm 4 mps 753 mmHg 54%
    18:00 +33°C° 0.1 mm 4 mps 753 mmHg 59%
    19:00 +33°C° 0.1 mm 4 mps 754 mmHg 64%
    20:00 +31°C° 0.1 mm 3 mps 754 mmHg 69%
    21:00 +30°C° 0.1 mm 3 mps 755 mmHg 74%
    22:00 +30°C° 0 mm 3 mps 755 mmHg 77%
    23:00 +29°C° 0 mm 2 mps 755 mmHg 80%

    Mañana, 28 Febrero, Viernes

    Tiempo Temperatura Precipitaciones Viento Presión Humedad
    00:00 +29°C° 0 mm 2 mps 755 mmHg 82%
    01:00 +29°C° 0 mm 2 mps 754 mmHg 84%
    02:00 +28°C° 0 mm 2 mps 754 mmHg 86%
    03:00 +28°C° 0 mm 2 mps 753 mmHg 87%
    04:00 +28°C° 0 mm 2 mps 754 mmHg 88%
    05:00 +28°C° 0 mm 2 mps 754 mmHg 88%
    06:00 +28°C° 0 mm 2 mps 754 mmHg 89%
    07:00 +30°C° 0 mm 3 mps 755 mmHg 79%
    08:00 +33°C° 0 mm 3 mps 755 mmHg 70%
    09:00 +34°C° 0 mm 4 mps 756 mmHg 60%
    10:00 +36°C° 0 mm 4 mps 756 mmHg 53%
    11:00 +38°C° 0 mm 3 mps 755 mmHg 46%
    12:00 +40°C° 0 mm 3 mps 755 mmHg 39%
    13:00 +40°C° 0 mm 4 mps 754 mmHg 44%
    14:00 +39°C° 0 mm 5 mps 753 mmHg 48%
    15:00 +36°C° 0 mm 6 mps 753 mmHg 52%
    16:00 +35°C° 0.1 mm 5 mps 753 mmHg 56%
    17:00 +34°C° 0.1 mm 4 mps 753 mmHg 60%
    18:00 +33°C° 0.1 mm 3 mps 753 mmHg 64%
    19:00 +31°C° 0.2 mm 3 mps 754 mmHg 67%
    20:00 +31°C° 0.2 mm 3 mps 755 mmHg 71%
    21:00 +30°C° 0.2 mm 3 mps 755 mmHg 74%
    22:00 +30°C° 0 mm 3 mps 755 mmHg 75%
    23:00 +30°C° 0 mm 3 mps 755 mmHg 76%

    Pasado mañana, 29 Febrero, Sábado

    Tiempo Temperatura Precipitaciones Viento Presión Humedad
    00:00 +30°C° 0 mm 4 mps 755 mmHg 78%
    01:00 +29°C° 0 mm 3 mps 754 mmHg 79%
    02:00 +29°C° 0 mm 3 mps 754 mmHg 81%
    03:00 +29°C° 0 mm 2 mps 753 mmHg 83%
    04:00 +28°C° 0 mm 2 mps 753 mmHg 84%
    05:00 +28°C° 0 mm 2 mps 753 mmHg 85%
    06:00 +28°C° 0 mm 2 mps 754 mmHg 86%
    07:00 +30°C° 0 mm 2 mps 754 mmHg 77%
    08:00 +33°C° 0 mm 3 mps 755 mmHg 68%
    09:00 +35°C° 0 mm 3 mps 755 mmHg 59%
    10:00 +37°C° 0 mm 3 mps 755 mmHg 51%
    11:00 +39°C° 0 mm 3 mps 754 mmHg 43%
    12:00 +41°C° 0 mm 2 mps 754 mmHg 35%
    13:00 +41°C° 0 mm 4 mps 753 mmHg 41%
    14:00 +40°C° 0 mm 5 mps 752 mmHg 47%
    15:00 +38°C° 0 mm 6 mps 752 mmHg 52%
    16:00 +36°C° 0 mm 6 mps 752 mmHg 59%
    17:00 +34°C° 0 mm 6 mps 752 mmHg 66%
    18:00 +32°C° 0 mm 6 mps 752 mmHg 72%
    19:00 +32°C° 0 mm 5 mps 753 mmHg 75%
    20:00 +32°C° 0 mm 5 mps 753 mmHg 77%
    21:00 +30°C° 0 mm 4 mps 754 mmHg 79%
    22:00 +30°C° 0 mm 5 mps 754 mmHg 79%
    23:00 +30°C° 0 mm 5 mps 754 mmHg 79%

    1 Marzo, Domingo

    Tiempo Temperatura Precipitaciones Viento Presión Humedad
    00:00 +30°C° 0 mm 5 mps 754 mmHg 79%
    01:00 +30°C° 0 mm 5 mps 754 mmHg 80%
    02:00 +30°C° 0 mm 4 mps 754 mmHg 80%
    03:00 +30°C° 0 mm 3 mps 754 mmHg 80%
    04:00 +30°C° 0 mm 3 mps 754 mmHg 79%
    05:00 +30°C° 0 mm 3 mps 754 mmHg 79%
    06:00 +30°C° 0 mm 3 mps 754 mmHg 78%
    07:00 +32°C° 0 mm 4 mps 754 mmHg 73%
    08:00 +33°C° 0 mm 4 mps 755 mmHg 68%
    09:00 +35°C° 0 mm 4 mps 756 mmHg 62%
    10:00 +35°C° 0.2 mm 4 mps 755 mmHg 61%
    11:00 +35°C° 0.2 mm 4 mps 755 mmHg 59%
    12:00 +36°C° 0.2 mm 4 mps 754 mmHg 58%
    13:00 +36°C° 0.6 mm 5 mps 754 mmHg 57%
    14:00 +36°C° 0.6 mm 5 mps 753 mmHg 55%
    15:00 +36°C° 0.6 mm 5 mps 752 mmHg 54%
    16:00 +35°C° 0.1 mm 5 mps 753 mmHg 58%
    17:00 +34°C° 0.1 mm 5 mps 753 mmHg 62%
    18:00 +33°C° 0.1 mm 5 mps 754 mmHg 66%
    19:00 +32°C° 0.1 mm 5 mps 754 mmHg 68%
    20:00 +32°C° 0.1 mm 4 mps 755 mmHg 70%
    21:00 +32°C° 0.1 mm 4 mps 755 mmHg 72%
    22:00 +30°C° 0 mm 4 mps 755 mmHg 74%
    23:00 +30°C° 0 mm 4 mps 755 mmHg 75%

    2 Marzo, Lunes

    Tiempo Temperatura Precipitaciones Viento Presión Humedad
    00:00 +30°C° 0 mm 4 mps 755 mmHg 77%
    01:00 +30°C° 0 mm 4 mps 755 mmHg 78%
    02:00 +29°C° 0 mm 4 mps 754 mmHg 79%
    03:00 +29°C° 0 mm 4 mps 754 mmHg 79%
    04:00 +29°C° 0 mm 3 mps 754 mmHg 80%
    05:00 +29°C° 0 mm 2 mps 754 mmHg 82%
    06:00 +28°C° 0 mm 1 mps 755 mmHg 83%
    07:00 +30°C° 0 mm 2 mps 755 mmHg 76%
    08:00 +31°C° 0 mm 3 mps 756 mmHg 69%
    09:00 +34°C° 0 mm 3 mps 757 mmHg 63%
    10:00 +35°C° 0 mm 4 mps 756 mmHg 59%
    11:00 +35°C° 0 mm 4 mps 756 mmHg 56%
    12:00 +36°C° 0 mm 4 mps 755 mmHg 52%
    13:00 +36°C° 0.4 mm 5 mps 755 mmHg 53%
    14:00 +36°C° 0.4 mm 5 mps 754 mmHg 53%
    15:00 +36°C° 0.4 mm 5 mps 753 mmHg 54%
    16:00 +35°C° 0.1 mm 5 mps 753 mmHg 57%
    17:00 +34°C° 0.1 mm 4 mps 754 mmHg 61%
    18:00 +33°C° 0.1 mm 4 mps 754 mmHg 65%
    19:00 +32°C° 0 mm 4 mps 755 mmHg 68%
    20:00 +31°C° 0 mm 3 mps 755 mmHg 71%
    21:00 +30°C° 0 mm 3 mps 756 mmHg 74%
    22:00 +30°C° 0 mm 3 mps 756 mmHg 76%
    23:00 +30°C° 0 mm 3 mps 755 mmHg 77%

    3 Marzo, Martes

    Tiempo Temperatura Precipitaciones Viento Presión Humedad
    00:00 +29°C° 0 mm 3 mps 755 mmHg 79%
    01:00 +29°C° 0 mm 3 mps 755 mmHg 80%
    02:00 +29°C° 0 mm 3 mps 755 mmHg 82%
    03:00 +29°C° 0 mm 2 mps 754 mmHg 84%
    04:00 +29°C° 0 mm 2 mps 754 mmHg 85%
    05:00 +28°C° 0 mm 2 mps 755 mmHg 86%
    06:00 +28°C° 0 mm 2 mps 755 mmHg 86%
    07:00 +30°C° 0 mm 3 mps 755 mmHg 79%
    08:00 +31°C° 0 mm 3 mps 756 mmHg 71%
    09:00 +34°C° 0 mm 3 mps 756 mmHg 63%
    10:00 +35°C° 0 mm 4 mps 756 mmHg 58%
    11:00 +37°C° 0 mm 4 mps 756 mmHg 53%
    12:00 +39°C° 0 mm 5 mps 755 mmHg 48%
    13:00 +37°C° 0 mm 5 mps 754 mmHg 49%
    14:00 +37°C° 0 mm 5 mps 754 mmHg 50%
    15:00 +38°C° 0 mm 6 mps 753 mmHg 51%
    16:00 +35°C° 0 mm 5 mps 753 mmHg 57%
    17:00 +34°C° 0 mm 5 mps 753 mmHg 62%
    18:00 +33°C° 0 mm 5 mps 753 mmHg 68%
    19:00 +32°C° 0 mm 4 mps 754 mmHg 70%
    20:00 +32°C° 0 mm 4 mps 755 mmHg 73%
    21:00 +30°C° 0 mm 3 mps 756 mmHg 76%
    22:00 +30°C° 0 mm 3 mps 756 mmHg 77%
    23:00 +30°C° 0 mm 2 mps 756 mmHg 79%
    Mostrar más